Flag for Jordan Weather past 2 weeks in Madaba, Jordan

Now
61 °F

Sunny.


Feels Like: 61 °F
Forecast: 47 / 62 °F
Wind: 7 mph from East

Location: Queen Alia Airport

Current Time: Feb 1, 2015 at 12:57:28 PM

Latest Report: Feb 1, 2015 at 12:00 PM


Visibility: 10 mi

Pressure: 30.12 "Hg

Humidity: 29%

Dew point: 28 °F

Location of MadabaLocation

Historic Weather in Madaba — Graph

°F

Madaba temperature yesterday

Maximum temperature yesterday: 61 °F (at 1:00 PM)
Minimum temperature yesterday: 28 °F (at 4:00 AM)
Average temperature yesterday: 45 °F

Past Weeks' High & Low Weather Summary

 TemperatureHumidityPressure
High72 °F (Jan 21, 2:00 PM)100% (Jan 18, 1:00 AM)30.30 "Hg (Jan 18, 1:00 AM)
Low28 °F (Jan 31, 4:00 AM)22% (Jan 22, 2:00 PM)29.89 "Hg (Jan 28, 5:00 AM)
Average48 °F67%30.11 "Hg
* Reported Jan 17 11:00 AM — Feb 1 11:00 AM, Madaba, Weather by CustomWeather, © 2014

Note: Actual official high and low records may vary slightly from our data, if they occured in-between our weather recording intervals... More about our weather records

Advertising

Madaba weather history for previous 24 hours

 ConditionsComfort  
Time TempWeatherWind HumidityBarometerVisibility
11:00 AM
Feb 1
61 °FSunny.7 mph31%30.15 "Hg10 mi
10:00 AM54 °FClear.5 mph44%30.15 "Hg4 mi
9:00 AM50 °FClear.7 mph54%30.12 "Hg4 mi
8:00 AM45 °FQuite cool.7 mph61%30.15 "Hg4 mi
7:00 AM34 °FSunny.6 mph75%30.15 "Hg10 mi
6:00 AM36 °FClear.No wind70%30.15 "Hg10 mi
5:00 AM37 °FClear.No wind70%30.15 "Hg10 mi
3:00 AM37 °FClear.No wind70%30.15 "Hg10 mi
2:00 AM34 °FClear.No wind75%30.21 "Hg10 mi
12:00 AM37 °FClear.6 mph70%30.21 "Hg10 mi
11:00 PM
Jan 31
37 °FClear.6 mph70%30.21 "Hg10 mi
10:00 PM41 °FClear.No wind66%30.18 "Hg10 mi
9:00 PM41 °FClear.No wind66%30.18 "Hg10 mi
8:00 PM45 °FClear.5 mph53%30.18 "Hg10 mi
7:00 PM50 °FClear.6 mph40%30.18 "Hg10 mi
6:00 PM54 °FClear.6 mph41%30.15 "Hg10 mi
5:00 PM57 °FSunny.6 mph33%30.15 "Hg10 mi
4:00 PM61 °FSunny.6 mph29%30.15 "Hg10 mi
3:00 PM61 °FSunny.6 mph27%30.15 "Hg10 mi
2:00 PM61 °FSunny.12 mph23%30.12 "Hg10 mi
1:00 PM61 °FSunny.9 mph25%30.12 "Hg10 mi
12:00 PM59 °FSunny.16 mph27%30.15 "Hg10 mi
Weather by CustomWeather, © 2014

See weather overviewHow to use our weather pages